Harbor Springs, MI

7:21 PM EDT on July 25, 2017 (GMT -0400)
Harbor Springs

Weather History for KMGN - November, 2013

Change the Weather History Date:

Wednesday, November 27, 2013

  Actual Average (KPLN) Record (KPLN)
Temperature  
Mean Temperature 17 °F -  
Max Temperature 22 °F 37 °F 63 °F (1990)
Min Temperature 12 °F 26 °F -8 °F (1951)
Degree Days  
Heating Degree Days 48    
Moisture  
Dew Point 11 °F    
Average Humidity 71    
Maximum Humidity 90    
Minimum Humidity 57    
Precipitation  
Precipitation 0.00 in - - ()
Sea Level Pressure  
Sea Level Pressure 30.06 in    
Wind  
Wind Speed 7 mph (NNW)    
Max Wind Speed 16 mph    
Max Gust Speed 25 mph    
Visibility 9 miles    
Events Snow    
Averages and records for this station are not official NWS values.
T = Trace of Precipitation, MM = Missing Value Source: NWS Daily Summary

Daily Weather History Graph

Daily Weather History Graph

Search for Another Location

Airport or City:

Trip Planner

Search our weather history database for the weather conditions in past years. The results will help you decide how hot, cold, wet, or windy it might be!

Date:

Astronomy

Nov. 27, 2013 Rise Set
Actual Time 7:54 AM EST 4:59 PM EST
Civil Twilight 7:21 AM EST 5:33 PM EST
Nautical Twilight 6:44 AM EST 6:09 PM EST
Astronomical Twilight 6:09 AM EST 6:45 PM EST
Moon 1:40 AM EST (11/27) 1:51 PM EST (11/27)
Length of Visible Light 10h 11m
Length of Day
9h 05m
Waning Crescent, 32% of the Moon is Illuminated
Nov 27
Waning Crescent
Dec 2
New
Dec 9
First Quarter
Dec 17
Full
Dec 25
Last Quarter

Hourly Weather History & Observations

Time (EST) Temp. Windchill Dew Point Humidity Pressure Visibility Wind Dir Wind Speed Gust Speed Precip Events Conditions
12:15 AM 21.6 °F 15.3 °F 13.5 °F 71% 30.02 in 10.0 mi WNW 4.6 mph - N/A   Overcast
12:34 AM 21.4 °F 13.8 °F 13.6 °F 72% 30.02 in 10.0 mi NW 5.8 mph - N/A   Overcast
12:55 AM 21.4 °F 11.9 °F 14.4 °F 74% 30.01 in 7.0 mi NW 8.1 mph - N/A Snow Light Snow
1:15 AM 21.2 °F 14.9 °F 14.5 °F 75% 30.00 in 10.0 mi NW 4.6 mph - N/A Snow Light Snow
1:34 AM 21.2 °F 14.9 °F 15.8 °F 80% 30.00 in 4.0 mi NW 4.6 mph - N/A Snow Light Snow
1:55 AM 21.2 °F 11.7 °F 13.8 °F 73% 29.99 in 10.0 mi WNW 8.1 mph - N/A   Mostly Cloudy
2:15 AM 20.3 °F 12.5 °F 12.7 °F 73% 29.99 in 10.0 mi WNW 5.8 mph - N/A   Scattered Clouds
2:34 AM 20.1 °F 12.3 °F 12.2 °F 71% 29.99 in 10.0 mi NW 5.8 mph - N/A   Scattered Clouds
2:55 AM 20.7 °F 14.2 °F 12.0 °F 69% 29.99 in 10.0 mi WNW 4.6 mph - N/A   Scattered Clouds
3:15 AM 21.2 °F 8.9 °F 12.0 °F 68% 29.98 in 10.0 mi NW 12.7 mph 20.7 mph N/A   Mostly Cloudy
3:34 AM 21.7 °F 13.2 °F 12.0 °F 66% 29.98 in 10.0 mi NW 6.9 mph - N/A   Overcast
3:55 AM 21.2 °F 11.7 °F 13.5 °F 72% 29.98 in 10.0 mi NNW 8.1 mph - N/A   Overcast
4:15 AM 21.2 °F 11.7 °F 13.1 °F 71% 29.98 in 10.0 mi NW 8.1 mph - N/A   Mostly Cloudy
4:34 AM 20.3 °F 11.5 °F 12.4 °F 71% 29.98 in 10.0 mi NNW 6.9 mph 19.6 mph N/A   Scattered Clouds
4:55 AM 20.1 °F 13.6 °F 12.7 °F 73% 29.99 in 10.0 mi NNW 4.6 mph - N/A   Scattered Clouds
5:15 AM 21.0 °F 11.4 °F 13.8 °F 74% 29.99 in 10.0 mi NNW 8.1 mph - N/A   Mostly Cloudy
5:35 AM 20.8 °F 13.2 °F 14.0 °F 75% 29.99 in 10.0 mi North 5.8 mph - N/A   Overcast
5:55 AM 20.7 °F 11.9 °F 13.6 °F 74% 29.99 in 10.0 mi North 6.9 mph 16.1 mph N/A   Overcast
6:15 AM 20.1 °F 13.6 °F 13.3 °F 75% 30.00 in 7.0 mi North 4.6 mph 17.3 mph N/A Snow Light Snow
6:35 AM 19.9 °F 10.1 °F 13.5 °F 76% 30.01 in 7.0 mi North 8.1 mph 16.1 mph N/A Snow Light Snow
6:55 AM 19.0 °F 9.0 °F 13.1 °F 78% 30.02 in 7.0 mi NNE 8.1 mph 17.3 mph N/A Snow Light Snow
7:15 AM 18.5 °F 3.8 °F 11.5 °F 74% 30.03 in 7.0 mi North 16.1 mph 24.2 mph N/A Snow Light Snow
7:35 AM 17.1 °F 3.0 °F 9.9 °F 73% 30.04 in 10.0 mi NNE 13.8 mph 21.9 mph N/A   Scattered Clouds
7:55 AM 16.3 °F 10.8 °F 9.1 °F 73% 30.05 in 10.0 mi NNE 3.5 mph - N/A   Clear
8:15 AM 16.3 °F 5.7 °F 9.5 °F 74% 30.06 in 10.0 mi North 8.1 mph - N/A   Clear
8:35 AM 16.5 °F 8.1 °F 9.9 °F 75% 30.06 in 10.0 mi North 5.8 mph - N/A   Clear
8:55 AM 17.1 °F 8.7 °F 10.4 °F 75% 30.07 in 10.0 mi North 5.8 mph - N/A   Clear
9:15 AM 18.5 °F 7.5 °F 11.1 °F 73% 30.07 in 10.0 mi North 9.2 mph - N/A   Clear
9:35 AM 18.5 °F 8.4 °F 10.4 °F 71% 30.07 in 10.0 mi North 8.1 mph - N/A   Clear
9:55 AM 19.4 °F 6.6 °F 10.4 °F 68% 30.07 in 10.0 mi North 12.7 mph 18.4 mph N/A   Clear
10:14 AM 19.6 °F 6.8 °F 9.5 °F 65% 30.07 in 10.0 mi North 12.7 mph 17.3 mph N/A   Scattered Clouds
10:35 AM 20.1 °F 9.5 °F 8.6 °F 61% 30.07 in 10.0 mi North 9.2 mph 20.7 mph N/A   Scattered Clouds
10:55 AM 20.7 °F 7.1 °F 8.2 °F 59% 30.07 in 10.0 mi North 15.0 mph 23.0 mph N/A   Scattered Clouds
11:14 AM 21.0 °F 9.9 °F 9.0 °F 60% 30.07 in 7.0 mi North 10.4 mph 21.9 mph N/A   Mostly Cloudy
11:35 AM 19.9 °F 7.3 °F 8.4 °F 61% 30.06 in 7.0 mi North 12.7 mph 21.9 mph N/A   Mostly Cloudy
11:55 AM 21.2 °F 9.5 °F 8.1 °F 57% 30.06 in 10.0 mi North 11.5 mph 17.3 mph N/A   Scattered Clouds
12:14 PM 21.9 °F 10.4 °F 8.8 °F 57% 30.05 in 10.0 mi NNW 11.5 mph 17.3 mph N/A   Mostly Cloudy
12:35 PM 21.2 °F 9.5 °F 9.1 °F 60% 30.04 in 10.0 mi North 11.5 mph 25.3 mph N/A   Mostly Cloudy
12:55 PM 21.6 °F 8.8 °F 9.7 °F 60% 30.04 in 10.0 mi North 13.8 mph 19.6 mph N/A   Mostly Cloudy
1:14 PM 22.1 °F 10.6 °F 9.5 °F 58% 30.04 in 10.0 mi North 11.5 mph 25.3 mph N/A   Mostly Cloudy
1:35 PM 21.2 °F 9.5 °F 12.0 °F 68% 30.04 in 5.0 mi NNW 11.5 mph 17.3 mph N/A Snow Light Snow
1:55 PM 21.6 °F 11.3 °F 10.0 °F 61% 30.04 in 10.0 mi NNW 9.2 mph 18.4 mph N/A   Mostly Cloudy
2:14 PM 21.2 °F 11.7 °F 14.0 °F 74% 30.04 in 1.8 mi NNW 8.1 mph 18.4 mph N/A Snow Light Snow
2:35 PM 20.8 °F 14.4 °F 14.5 °F 77% 30.05 in 5.0 mi North 4.6 mph - N/A   Haze
2:55 PM 21.6 °F 9.3 °F 9.7 °F 60% 30.05 in 10.0 mi NNW 12.7 mph 19.6 mph N/A   Mostly Cloudy
3:15 PM 22.1 °F 8.9 °F 9.3 °F 58% 30.05 in 10.0 mi North 15.0 mph 20.7 mph N/A   Overcast
3:35 PM 21.6 °F 11.3 °F 9.7 °F 60% 30.05 in 10.0 mi North 9.2 mph - N/A   Overcast
3:55 PM 21.2 °F 12.6 °F 10.9 °F 65% 30.06 in 7.0 mi NNW 6.9 mph - N/A Snow Light Snow
4:15 PM 21.2 °F 13.6 °F 10.9 °F 65% 30.07 in 10.0 mi North 5.8 mph - N/A   Overcast
4:35 PM 21.4 °F 12.8 °F 11.1 °F 65% 30.07 in 10.0 mi North 6.9 mph - N/A   Overcast
4:54 PM 21.4 °F 13.8 °F 10.9 °F 64% 30.08 in 10.0 mi North 5.8 mph - N/A   Overcast
5:15 PM 21.2 °F 12.6 °F 10.8 °F 64% 30.09 in 10.0 mi North 6.9 mph - N/A   Overcast
5:35 PM 21.2 °F 14.9 °F 10.8 °F 64% 30.09 in 10.0 mi North 4.6 mph - N/A   Overcast
5:54 PM 20.7 °F 14.2 °F 10.9 °F 66% 30.11 in 10.0 mi NNW 4.6 mph - N/A   Mostly Cloudy
6:15 PM 19.9 °F 12.1 °F 10.6 °F 67% 30.11 in 10.0 mi North 5.8 mph - N/A   Scattered Clouds
6:35 PM 19.9 °F 12.1 °F 10.8 °F 68% 30.12 in 10.0 mi North 5.8 mph - N/A   Clear
6:55 PM 19.6 °F 14.5 °F 10.6 °F 68% 30.12 in 10.0 mi NNE 3.5 mph - N/A   Mostly Cloudy
7:15 PM 19.9 °F 11.1 °F 11.3 °F 69% 30.12 in 10.0 mi North 6.9 mph - N/A   Mostly Cloudy
7:35 PM 19.2 °F 14.1 °F 11.5 °F 72% 30.13 in 10.0 mi North 3.5 mph - N/A   Mostly Cloudy
7:55 PM 19.2 °F 12.5 °F 12.2 °F 74% 30.13 in 10.0 mi North 4.6 mph - N/A   Mostly Cloudy
8:15 PM 18.7 °F 13.5 °F 12.2 °F 76% 30.13 in 10.0 mi North 3.5 mph - N/A   Scattered Clouds
8:34 PM 18.5 °F - 12.7 °F 78% 30.13 in 10.0 mi Calm Calm - N/A   Clear
8:55 PM 16.7 °F - 11.7 °F 81% 30.13 in 10.0 mi Calm Calm - N/A   Clear
9:15 PM 15.6 °F - 12.4 °F 87% 30.14 in 10.0 mi Calm Calm - N/A   Clear
9:35 PM 14.7 °F - 11.7 °F 88% 30.14 in 10.0 mi Calm Calm - N/A   Clear
9:55 PM 13.8 °F - 11.1 °F 89% 30.14 in 10.0 mi Calm Calm - N/A   Clear
10:15 PM 13.5 °F 7.5 °F 10.9 °F 90% 30.14 in 10.0 mi North 3.5 mph - N/A   Clear
10:34 PM 13.5 °F 7.5 °F 10.6 °F 88% 30.15 in 10.0 mi NNW 3.5 mph - N/A   Clear
10:55 PM 12.2 °F 6.1 °F 9.5 °F 89% 30.15 in 10.0 mi NNW 3.5 mph - N/A   Scattered Clouds
11:15 PM 13.6 °F 6.0 °F 10.8 °F 88% 30.16 in 10.0 mi North 4.6 mph - N/A   Scattered Clouds
11:34 PM 13.5 °F 7.5 °F 10.4 °F 88% 30.16 in 10.0 mi NNW 3.5 mph - N/A   Clear
11:55 PM 13.5 °F 5.8 °F 10.2 °F 87% 30.16 in 10.0 mi North 4.6 mph - N/A   Scattered Clouds